www.pogodaiklimat.ru

Погода и климат >> Архив погоды >> Ирак >> Киркук


ПОГОДА в Киркуке

  • Прогноз погоды в Киркуке
  • Монитор погоды в Киркуке

АРХИВ ПОГОДЫ в Киркуке

Время (UTC), дата Ветер
(напр.,м/с)
 
Видим.   Явления Облачность Т
(С)
Тd
(С)
f
(%)
Тe
(С)
Тes
(С)
Комфортность P
(гПа)
Po
(гПа)
Тmin
(С)
Tmax
(С)
R
(мм)
R24
(мм)
S
(см)
06 15.08 штиль 0 10 км ясно +40.8 +16.5 24 +43 +57 опасность
перегрева
998.0 962.7 +33.8
09 15.08 ЮЗ 3 10 км ясно +45.4 +13.1 15 +45 +61 опасность
перегрева
997.3 962.5
12 15.08 ЮЗ 3 10 км 4/0
[Ac trans]
+47.0 +13.2 14 +47 +54 опасность
перегрева
995.1 960.6
15 15.08 СЗ 3 10 км 4/0
[Ac trans]
+45.0 +13.5 16 +45 +45 опасность
перегрева
995.3 960.5
18 15.08 З 3 10 км 4/0
[Ac trans]
+42.8 +13.9 19 +43 +43 опасность
перегрева
995.7 960.7 +47.5
21 15.08 ЮЗ 2 10 км ясно +36.2 +15.3 29 +38 +38 очень
душно
998.5 962.6
00 16.08 ЮЗ 1 10 км ясно +35.6 +14.4 28 +37 +37 душно 998.5 962.6
03 16.08 штиль 0 10 км ясно +34.0 +15.1 32 +36 +36 душно 998.7 962.6
06 16.08 СЗ 1 10 км ясно +35.5 +18.9 38 +40 +53 опасность
солнечного
удара
998.5 962.6 +33.2
12 16.08 СЗ 3 10 км ясно +42.5 +16.5 22 +44 +53 опасность
перегрева
995.7 960.6
15 16.08 СЗ 4 10 км ясно +41.0 +14.0 20 +41 +41 опасность
перегрева
995.7 960.5
18 16.08 СЗ 2 10 км ясно +36.0 +12.6 25 +36 +36 очень
жарко
998.5 962.6 +43.5
21 16.08 С 1 10 км ясно +32.5 +11.1 27 +32 +32 жарко 998.9 962.6
00 17.08 С 1 10 км ясно +31.0 +9.9 27 +31 +31 жарко 998.9 962.4
03 17.08 С 1 10 км ясно +30.0 +10.9 31 +30 +31 жарко 997.1 960.6
09 17.08 С 2 10 км ясно +38.4 +10.7 19 +37 +56 опасность
солнечного
удара
996.2 960.7
12 17.08 С 2 10 км ясно +39.7 +12.3 20 +39 +50 очень
жарко
995.9 960.5
15 17.08 СЗ 1 10 км ясно +38.8 +14.3 24 +40 +40 очень
душно
994.1 958.7
18 17.08 СЗ 1 10 км ясно +34.5 +14.7 31 +36 +36 душно 996.6 960.6 +40.5
21 17.08 С 1 10 км ясно +32.7 +12.7 30 +33 +33 жарко 996.8 960.6
00 18.08 С 1 10 км ясно +31.8 +12.9 32 +33 +33 жарко 996.8 960.5
03 18.08 С 1 10 км ясно +31.0 +13.4 34 +32 +33 жарко 996.8 960.4
06 18.08 В 1 10 км ясно +33.5 +15.0 33 +35 +47 душно 996.6 960.5 +29.4
09 18.08 В 1 10 км ясно +40.0 +16.0 25 +42 +64 опасность
перегрева
995.9 960.6
15 18.08 В 2 10 км ясно +40.8 +15.4 23 +42 +43 опасность
перегрева
995.9 960.7
18 18.08 В 2 10 км ясно +36.9 +17.0 31 +40 +40 очень
душно
998.5 962.7 +42.5
21 18.08 ЮВ 1 10 км ясно +34.1 +15.9 34 +37 +37 очень
душно
998.7 962.6
00 19.08 ЮВ 1 10 км ясно +33.0 +15.2 34 +35 +35 душно 998.7 962.5
03 19.08 Ю 1 10 км ясно +31.2 +15.2 38 +34 +34 душно 1001.0 964.5
06 19.08 ЮЗ 1 10 км ясно +36.8 +16.6 30 +39 +51 опасность
солнечного
удара
1000.5 964.6 +29.5
09 19.08 Ю 2 10 км ясно +40.3 +16.9 26 +43 +61 опасность
перегрева
1002.1 966.6
12 19.08 ЮВ 2 10 км ясно +42.5 +15.4 21 +44 +54 опасность
перегрева
999.9 964.7
15 19.08 СВ 2 10 км ясно +41.2 +14.9 21 +42 +42 опасность
перегрева
999.9 964.6
18 19.08 ЮВ 2 10 км ясно +36.8 +14.8 27 +38 +38 очень
душно
1002.6 966.7 +42.8
21 19.08 Ю 2 10 км ясно +35.3 +14.8 29 +37 +37 очень
душно
1002.6 966.5
00 20.08 Ю 2 10 км ясно +33.3 +13.6 30 +34 +34 очень
жарко
1000.8 964.5
03 20.08 ЮЗ 1 10 км ясно +31.2 +13.2 33 +32 +33 жарко 1003.1 966.5
06 20.08 Ю 1 10 км ясно +35.5 +14.7 29 +37 +49 душно 1002.6 966.5 +29.6
09 20.08 СВ 2 10 км ясно +41.5 +13.6 19 +41 +60 опасность
перегрева
1001.9 966.5
12 20.08 В 2 10 км ясно +44.4 +14.4 18 +45 +56 опасность
перегрева
999.6 964.6
15 20.08 В 2 10 км ясно +42.5 +14.4 19 +43 +43 опасность
перегрева
999.9 964.7
18 20.08 В 2 10 км ясно +38.3 +14.2 24 +39 +39 очень
душно
1000.3 964.6 +44.6
21 20.08 З 1 10 км ясно +32.5 +17.4 41 +36 +36 очень
душно
1001.0 964.6
00 21.08 З 1 10 км ясно +34.0 +14.4 31 +35 +35 очень
жарко
1000.8 964.6
03 21.08 З 1 10 км ясно +27.8 +15.0 46 +30 +31 жарко 1001.5 964.6
06 21.08 ЮВ 1 10 км ясно +34.8 +15.2 31 +37 +48 очень
душно
1002.8 966.6 +26.0
09 21.08 СЗ 2 10 км ясно +43.0 +15.0 20 +44 +62 опасность
перегрева
999.6 964.5
15 21.08 ЮВ 2 10 км ясно +43.2 +14.3 19 +44 +44 опасность
перегрева
997.6 962.6
18 21.08 В 3 10 км ясно +36.5 +15.3 28 +38 +38 очень
душно
1000.5 964.6 +45.5
21 21.08 Ю 2 10 км ясно +33.6 +14.1 31 +35 +35 душно 1000.8 964.6
00 22.08 ЮЗ 2 10 км ясно +30.5 +11.7 31 +31 +31 жарко 1001.2 964.6
03 22.08 Ю 2 10 км ясно +28.4 +12.8 38 +30 +30 жарко 1001.5 964.6

 

Местоположение метеостанции Киркук (Ирак): широта 35.47 долгота 44.40 высота над уровнем моря 331 м.

В архиве по умолчанию представлена погода в Киркуке за последнюю неделю. Архивные данные за месяц целиком и за предыдущие месяцы, начиная с января 2011 года, Вы можете получить, выбрав интересующий диапазон дат из раскрывающегося списка и нажав кнопку "Ввод!".


*Определитесь, кто Вы:
робот инопланетянин человек

Внимание! Время в таблицах - всемирное. Для получения местного времени необходимо прибавить поправку, которая равна 3 ч.

Смотрите также архив погоды в соседних городах и на ближайших метеорологических станциях:

Погода в Чамчамале (Ирак) (39 км)
Погода в Тузе (Ирак) (69 км)
Погода в Махмуре (Ирак) (79 км)
Погода в Эрбиле (Ирак) (84 км)
Погода в Сулеймании (Ирак) (95 км)
Погода в Салахадине (Ирак) (103 км)
Погода в Бейджи (Ирак) (103 км)
Погода в Тикрите (Ирак) (119 км)
Погода в Халабче (Ирак) (144 км)
Погода в Мосуле (Ирак) (147 км)

Пояснения к столбцам:

Ветер - указаны скорость ветра в м/с - средняя за 10 мин, порывы в срок и между сроками (в фигурных скобках) и направление, откуда дует ветер: С - северный, СВ - северо-восточный, В - восточный, ЮВ - юго-восточный, Ю - южный, ЮЗ - юго-западный, З - западный, СЗ - северо-западный.
Видимость - горизонтальная дальность видимости в метрах или километрах. При видимости от 1 до 10 км при отсутствии осадков обычно наблюдается дымка, при ухудшении видимости до 1 км и менее - туман. В сухую погоду видимость может ухудшаться дымом, пылью или мглою.
Явления - указаны атмосферные явления, наблюдавшиеся в срок или в последний час перед сроком; фигурными скобками обозначены явления, наблюдавшиеся между сроками (за 1-3 часа до срока); квадратными скобками обозначены град или гололедные отложения с указанием их диаметра в мм.
Облачность - указаны через наклонную черту общая и нижняя облачность в баллах и высота нижней границы облаков в метрах; квадратными скобками обозначены формы облаков: Ci - перистые, Cs - перисто-слоистые, Cc - перисто-кучевые, Ac - высококучевые, As - высокослоистые, Sc - слоисто-кучевые, Ns - слоисто-дождевые, Cu - кучевые, Cb - кучево-дождевые. Подробнее классификацию облаков см. в Атласе облаков (PDF).
T - Температура воздуха - температура, измеренная на высоте 2 м над землей.
Td - Температура точки росы - температура, при понижении до которой содержащийся в воздухе водяной пар достигнет насыщения.
f - Относительная влажность воздуха - влажноcть воздуха, измеренная на высоте 2 м над землей.
Te - Эффективная температура - температура, которую ощущает одетый по сезону человек в тени. Характеристика душности погоды. При расчете учитывается влияние влажности воздуха и скорости ветра на теплоощущения человека.
Tes - Эффективная температура на солнце - температура, которую ощущает человек, с поправкой на солнечный нагрев. Характеристика знойности погоды. Зависит от высоты солнца над горизонтом, облачности и скорости ветра. Ночью, в пасмурную погоду, а также при ветре 12 м/с и более поправка равна нулю.
P - Атмосферное давление - приведенное к уровню моря атмосферное давление.
Po - Атмосферное давление - измеренное на уровне метеостанции атмосферное давление.
Tmin - Минимальная температура - минимум температуры воздуха на высоте 2 м над землей.
Tmax - Максимальная температура - максимум температуры воздуха на высоте 2 м над землей.
R - Количество осадков - Количество выпавших осадков за период времени, мм. При наведении курсора мыши на число - период времени, за который выпало указанное количество осадков.
R24 - Количество осадков - Количество выпавших осадков за 24 часа, мм.
S - Снежный покров - Высота снежного покрова, см. При наведении курсора мыши на число - состояние снежного покрова и степень покрытия местности в баллах.